St. Johns, AZ

8:32 AM MST on November 23, 2017 (GMT -0700)
Saint Johns Industrial

Weather History for KSJN - November, 2012

Change the Weather History Date:

Thursday, November 1, 2012

  Actual Average (KLSB) Record (KLSB)
Temperature  
Mean Temperature 44 °F -  
Max Temperature 64 °F 71 °F 77 °F (2014)
Min Temperature 24 °F 35 °F 32 °F (2013)
Degree Days  
Heating Degree Days 21    
Moisture  
Dew Point 13 °F    
Average Humidity 24    
Maximum Humidity 47    
Minimum Humidity 7    
Precipitation  
Precipitation 0.00 in - - ()
Sea Level Pressure  
Sea Level Pressure 30.04 in    
Wind  
Wind Speed 3 mph (SW)    
Max Wind Speed 17 mph    
Max Gust Speed 21 mph    
Visibility 10 miles    
Events      
Averages and records for this station are not official NWS values.
T = Trace of Precipitation, MM = Missing Value Source: NWS Daily Summary

Daily Weather History Graph

Daily Weather History Graph

Search for Another Location

Airport or City:

Trip Planner

Search our weather history database for the weather conditions in past years. The results will help you decide how hot, cold, wet, or windy it might be!

Date:

Astronomy

Nov. 01, 2012 Rise Set
Actual Time 6:38 AM MST 5:23 PM MST
Civil Twilight 6:12 AM MST 5:49 PM MST
Nautical Twilight 5:42 AM MST 6:19 PM MST
Astronomical Twilight 5:13 AM MST 6:48 PM MST
Moon 7:28 PM MST (11/1) 9:08 AM MST (11/1)
Length of Visible Light 11h 37m
Length of Day
10h 45m
Waning Gibbous, 92% of the Moon is Illuminated
Nov 1
Waning Gibbous
Nov 6
Last Quarter
Nov 13
New
Nov 20
First Quarter
Nov 28
Full

Hourly Weather History & Observations

Time (MST) Temp. Windchill Dew Point Humidity Pressure Visibility Wind Dir Wind Speed Gust Speed Precip Events Conditions
12:54 AM 43.0 °F - 10.0 °F 26% 30.02 in 10.0 mi Calm Calm - N/A   Clear
1:54 AM 35.6 °F - 8.6 °F 33% 30.20 in 10.0 mi Calm Calm - N/A   Clear
2:54 AM 35.6 °F - 10.4 °F 35% 30.19 in 10.0 mi Calm Calm - N/A   Clear
3:54 AM 32.0 °F - 10.0 °F 40% 30.04 in 10.0 mi Calm Calm - N/A   Clear
4:54 AM 30.9 °F - 9.0 °F 40% 30.06 in 10.0 mi Calm Calm - N/A   Clear
5:54 AM 28.4 °F - 10.4 °F 47% 30.19 in 10.0 mi Calm Calm - N/A   Clear
6:54 AM 30.2 °F - 8.6 °F 40% 30.19 in 10.0 mi Calm Calm - N/A   Clear
7:54 AM 39.0 °F - 10.0 °F 30% 30.12 in 10.0 mi Calm Calm - N/A   Clear
8:54 AM 48.0 °F - 10.9 °F 22% 30.09 in 10.0 mi Calm Calm - N/A   Clear
9:54 AM 57.2 °F - 12.2 °F 17% 30.20 in 10.0 mi Calm Calm - N/A   Clear
10:54 AM 66.2 °F - 15.8 °F 14% 30.17 in 10.0 mi NNW 4.6 mph - N/A   Clear
11:54 AM 72.0 °F - 16.0 °F 12% 29.95 in 10.0 mi Variable 4.6 mph - N/A   Clear
12:54 PM 73.9 °F - 12.9 °F 10% 29.91 in 10.0 mi Variable 5.8 mph 18.4 mph N/A   Clear
1:54 PM 73.4 °F - 12.2 °F 10% 30.08 in 10.0 mi WSW 10.4 mph 20.7 mph N/A   Clear
2:54 PM 75.0 °F - 16.0 °F 11% 29.90 in 10.0 mi West 13.8 mph - N/A   Clear
3:54 PM 72.0 °F - 14.0 °F 11% 29.91 in 10.0 mi West 17.3 mph - N/A   Clear
4:54 PM 70.0 °F - 12.9 °F 11% 29.92 in 10.0 mi West 16.1 mph - N/A   Clear
5:54 PM 59.0 °F - 14.0 °F 17% 29.99 in 10.0 mi West 5.8 mph - N/A   Clear
6:54 PM 54.0 °F - 14.0 °F 21% 30.02 in 10.0 mi Calm Calm - N/A   Clear
7:54 PM 50.0 °F - 15.1 °F 25% 30.01 in 10.0 mi South 4.6 mph - N/A   Clear
8:54 PM 48.9 °F - 14.0 °F 25% 29.99 in 10.0 mi South 6.9 mph - N/A   Clear
9:54 PM 46.0 °F 43.9 °F 14.0 °F 28% 29.97 in 10.0 mi SW 4.6 mph - N/A   Clear
10:54 PM 46.0 °F 43.1 °F 15.1 °F 29% 29.94 in 10.0 mi South 5.8 mph - N/A   Clear
11:54 PM 44.1 °F 40.8 °F 15.1 °F 31% 29.93 in 10.0 mi SSE 5.8 mph - N/A   Clear